Voltar ao catálogo

SL-14 R/B

AtivoPO
NORAD 22970·ROCKET BODY·🇷🇺 Russia

Lançado Jan 25, 1994 de Plesetsk Cosmodrome

Loading…

Próximas Passagens (próximas 24 horas)

TLE

AtualizadoSource: Space-Track

Época: Sep 14, 2026, 06:33 UTC

1 22970U 94003B   26257.27345523  .00000180  00000-0  43647-3 0  9995
2 22970  82.5654  24.2789 0015746 346.6804  30.8147 13.17011757568711

Acompanhe SL-14 R/B em tempo real com AllMySat

Download on the App Store